Detroit Lakes, MN

9:47 PM CDT on March 27, 2017 (GMT -0500)
Detroit Lakes

Weather History for KDTL - June, 2012

Change the Weather History Date:

Thursday, June 14, 2012

  Actual Average Record
Temperature  
Mean Temperature 68 °F -  
Max Temperature 78 °F 75 °F 96 °F (1979)
Min Temperature 59 °F 51 °F 32 °F (1958)
Cooling Degree Days 4    
Growing Degree Days 18 (Base 50)    
Moisture  
Dew Point 57 °F    
Average Humidity 74    
Maximum Humidity 100    
Minimum Humidity 39    
Precipitation  
Precipitation 0.38 in - - ()
Sea Level Pressure  
Sea Level Pressure 29.75 in    
Wind  
Wind Speed 12 mph (South)    
Max Wind Speed 20 mph    
Max Gust Speed 28 mph    
Visibility 10 miles    
Events Rain , Thunderstorm    
Averages and records for this station are not official NWS values.
T = Trace of Precipitation, MM = Missing Value Source: NWS Daily Summary

Daily Weather History Graph

Daily Weather History Graph

Search for Another Location

Airport or City:

Trip Planner

Search our weather history database for the weather conditions in past years. The results will help you decide how hot, cold, wet, or windy it might be!

Date:

Astronomy

Jun. 14, 2012 Rise Set
Actual Time 5:28 AM CDT 9:19 PM CDT
Civil Twilight 4:49 AM CDT 9:59 PM CDT
Nautical Twilight 3:55 AM CDT 10:52 PM CDT
Astronomical Twilight 2:36 AM CDT 12:12 AM CDT
Moon 2:24 AM CDT (6/14) 4:53 PM CDT (6/14)
Length of Visible Light 17h 09m
Length of Day
15h 50m
Waning Crescent, 21% of the Moon is Illuminated
Jun 14
Waning Crescent
Jun 19
New
Jun 26
First Quarter
Jul 3
Full
Jul 10
Last Quarter

Hourly Weather History & Observations

Time (CDT) Temp. Dew Point Humidity Pressure Visibility Wind Dir Wind Speed Gust Speed Precip Events Conditions
12:13 AM 62.6 °F 53.6 °F 72% 29.79 in 10.0 mi SE 15.0 mph 18.4 mph N/A   Clear
12:32 AM 62.6 °F 53.6 °F 72% 29.77 in 10.0 mi SE 16.1 mph 21.9 mph N/A   Clear
12:53 AM 62.6 °F 53.6 °F 72% 29.77 in 10.0 mi SE 12.7 mph 21.9 mph N/A   Clear
1:13 AM 62.6 °F 51.8 °F 68% 29.77 in 10.0 mi SE 15.0 mph 19.6 mph N/A   Clear
1:32 AM 62.6 °F 51.8 °F 68% 29.73 in 10.0 mi SE 17.3 mph 21.9 mph N/A   Clear
1:53 AM 62.6 °F 51.8 °F 68% 29.74 in 10.0 mi SSE 13.8 mph - N/A   Clear
2:12 AM 62.6 °F 51.8 °F 68% 29.74 in 10.0 mi SSE 10.4 mph - N/A   Clear
2:33 AM 62.6 °F 51.8 °F 68% 29.74 in 10.0 mi SSE 12.7 mph 16.1 mph N/A   Clear
2:52 AM 64.4 °F 51.8 °F 64% - 10.0 mi SSE 13.8 mph 18.4 mph N/A   Clear
3:13 AM 64.4 °F 51.8 °F 64% 29.75 in 10.0 mi SSE 12.7 mph - N/A Thunderstorm Clear
3:33 AM 64.4 °F 53.6 °F 68% 29.74 in 10.0 mi SSE 12.7 mph - N/A Rain , Thunderstorm Light Thunderstorms and Rain
3:53 AM 62.6 °F 53.6 °F 72% 29.88 in 10.0 mi WNW 17.3 mph 27.6 mph N/A Rain , Thunderstorm Light Thunderstorms and Rain
4:13 AM 60.8 °F 57.2 °F 88% 29.85 in 7.0 mi NW 3.5 mph - 0.06 in Rain , Thunderstorm Thunderstorms and Rain
4:32 AM 60.8 °F 59.0 °F 94% 29.85 in 7.0 mi Calm Calm - 0.09 in Rain , Thunderstorm Thunderstorms and Rain
4:53 AM 60.8 °F 59.0 °F 94% 29.82 in 5.0 mi ESE 8.1 mph - 0.16 in Rain , Thunderstorm Heavy Thunderstorms and Rain
5:13 AM 60.8 °F 59.0 °F 94% 29.76 in 7.0 mi East 11.5 mph - 0.05 in Rain , Thunderstorm Rain
5:32 AM 59.0 °F 59.0 °F 100% 29.73 in 7.0 mi ESE 12.7 mph 18.4 mph 0.12 in Rain , Thunderstorm Thunderstorms and Rain
5:53 AM 59.0 °F 59.0 °F 100% 29.68 in 7.0 mi ESE 17.3 mph 21.9 mph 0.16 in Rain , Thunderstorm Thunderstorms and Rain
6:13 AM 59.0 °F 57.2 °F 94% 29.66 in 10.0 mi SE 19.6 mph 26.5 mph 0.02 in Rain , Thunderstorm Light Thunderstorms and Rain
6:33 AM 59.0 °F 57.2 °F 94% 29.76 in 7.0 mi South 4.6 mph - 0.06 in Rain , Thunderstorm Light Thunderstorms and Rain
6:52 AM 59.0 °F 57.2 °F 94% 29.73 in 10.0 mi SE 16.1 mph - 0.06 in Rain , Thunderstorm Rain
7:13 AM 59.0 °F 57.2 °F 94% 29.71 in 10.0 mi SE 16.1 mph 21.9 mph N/A   Mostly Cloudy
7:33 AM 59.0 °F 57.2 °F 94% 29.72 in 10.0 mi SE 16.1 mph 20.7 mph N/A Thunderstorm Mostly Cloudy
7:52 AM 59.0 °F 57.2 °F 94% 29.70 in 10.0 mi SSE 15.0 mph - N/A   Mostly Cloudy
8:13 AM 59.0 °F 57.2 °F 94% 29.71 in 10.0 mi SSE 17.3 mph - N/A   Mostly Cloudy
8:33 AM 60.8 °F 57.2 °F 88% 29.71 in 10.0 mi SE 10.4 mph 18.4 mph N/A   Mostly Cloudy
8:53 AM 60.8 °F 59.0 °F 94% 29.71 in 10.0 mi SE 6.9 mph - N/A   Mostly Cloudy
9:12 AM 60.8 °F 59.0 °F 94% 29.71 in 10.0 mi SE 12.7 mph 19.6 mph N/A   Mostly Cloudy
9:33 AM 60.8 °F 59.0 °F 94% 29.69 in 10.0 mi SE 9.2 mph - N/A   Overcast
9:52 AM 60.8 °F 59.0 °F 94% 29.69 in 10.0 mi SE 10.4 mph - N/A   Mostly Cloudy
10:13 AM 62.6 °F 59.0 °F 88% 29.70 in 10.0 mi SSE 16.1 mph 19.6 mph N/A   Mostly Cloudy
10:52 AM 62.6 °F 59.0 °F 88% 29.70 in 10.0 mi SSE 12.7 mph - N/A   Mostly Cloudy
11:13 AM 64.4 °F 59.0 °F 83% 29.71 in 10.0 mi SSE 11.5 mph 19.6 mph N/A   Mostly Cloudy
11:33 AM 64.4 °F 59.0 °F 83% 29.72 in 10.0 mi SSE 12.7 mph - N/A   Scattered Clouds
11:52 AM 64.4 °F 60.8 °F 88% 29.73 in 10.0 mi SSE 11.5 mph - N/A   Clear
12:13 PM 66.2 °F 60.8 °F 83% 29.72 in 10.0 mi South 10.4 mph - N/A   Clear
12:32 PM 68.0 °F 60.8 °F 78% 29.72 in 10.0 mi South 11.5 mph - N/A   Scattered Clouds
12:52 PM 69.8 °F 60.8 °F 73% 29.71 in 10.0 mi SSE 12.7 mph 17.3 mph N/A   Scattered Clouds
1:13 PM 69.8 °F 62.6 °F 78% 29.72 in 10.0 mi South 12.7 mph 16.1 mph N/A   Scattered Clouds
1:33 PM 71.6 °F 62.6 °F 73% 29.71 in 10.0 mi South 9.2 mph - N/A   Scattered Clouds
1:52 PM 71.6 °F 62.6 °F 73% 29.71 in 10.0 mi SSW 8.1 mph - N/A   Scattered Clouds
2:13 PM 71.6 °F 62.6 °F 73% 29.72 in 10.0 mi SW 6.9 mph - N/A   Overcast
2:32 PM 71.6 °F 64.4 °F 78% 29.73 in 10.0 mi SSW 8.1 mph - N/A   Mostly Cloudy
2:52 PM 73.4 °F 64.4 °F 73% 29.73 in 10.0 mi SW 10.4 mph - N/A   Mostly Cloudy
3:13 PM 73.4 °F 64.4 °F 73% 29.74 in 10.0 mi WSW 10.4 mph 16.1 mph N/A   Mostly Cloudy
3:33 PM 73.4 °F 62.6 °F 69% 29.74 in 10.0 mi WSW 8.1 mph - N/A   Scattered Clouds
3:52 PM 75.2 °F 64.4 °F 69% 29.74 in 10.0 mi WSW 8.1 mph - N/A   Scattered Clouds
4:13 PM 77.0 °F 62.6 °F 61% 29.74 in 10.0 mi West 8.1 mph - N/A   Scattered Clouds
4:32 PM 77.0 °F 62.6 °F 61% 29.74 in 10.0 mi WSW 11.5 mph - N/A   Clear
4:52 PM 77.0 °F 60.8 °F 57% 29.74 in 10.0 mi SW 10.4 mph - N/A   Clear
5:13 PM 77.0 °F 62.6 °F 61% 29.75 in 10.0 mi WSW 10.4 mph 16.1 mph N/A   Scattered Clouds
5:33 PM 78.8 °F 59.0 °F 51% 29.75 in 10.0 mi West 13.8 mph - N/A   Clear
5:52 PM 78.8 °F 51.8 °F 39% 29.76 in 10.0 mi West 15.0 mph 20.7 mph N/A   Clear
6:32 PM 77.0 °F 51.8 °F 41% 29.76 in 10.0 mi West 13.8 mph 23.0 mph N/A   Clear
6:53 PM 77.0 °F 51.8 °F 41% 29.77 in 10.0 mi West 16.1 mph - N/A   Clear
7:13 PM 77.0 °F 53.6 °F 44% 29.78 in 10.0 mi West 16.1 mph 24.2 mph N/A   Clear
7:32 PM 75.2 °F 53.6 °F 47% 29.78 in 10.0 mi West 15.0 mph 18.4 mph N/A   Clear
7:53 PM 73.4 °F 53.6 °F 50% 29.78 in 10.0 mi West 12.7 mph 17.3 mph N/A   Clear
8:13 PM 73.4 °F 53.6 °F 50% 29.79 in 10.0 mi WNW 12.7 mph - N/A   Clear
8:32 PM 71.6 °F 53.6 °F 53% 29.78 in 10.0 mi WNW 10.4 mph - N/A   Clear
8:53 PM 71.6 °F 53.6 °F 53% 29.78 in 10.0 mi WNW 11.5 mph - N/A   Clear
9:12 PM 69.8 °F 53.6 °F 56% 29.77 in 10.0 mi NW 8.1 mph - N/A   Clear
9:32 PM 68.0 °F 53.6 °F 60% 29.78 in 10.0 mi WNW 5.8 mph - N/A   Clear
9:53 PM 68.0 °F 53.6 °F 60% 29.80 in 10.0 mi SW 3.5 mph - N/A   Clear
10:13 PM 64.4 °F 55.4 °F 73% 29.83 in 10.0 mi South 5.8 mph - N/A   Scattered Clouds
10:32 PM 64.4 °F 55.4 °F 73% 29.84 in 10.0 mi South 4.6 mph - N/A   Scattered Clouds
10:53 PM 64.4 °F 55.4 °F 73% 29.85 in 10.0 mi Calm Calm - N/A   Clear
11:12 PM 62.6 °F 57.2 °F 82% 29.86 in 10.0 mi SSW 4.6 mph - N/A   Clear
11:32 PM 62.6 °F 57.2 °F 82% 29.87 in 10.0 mi South 5.8 mph - N/A   Scattered Clouds
11:53 PM 62.6 °F 57.2 °F 82% 29.88 in 10.0 mi SSW 3.5 mph - N/A   Mostly Cloudy